Weather History for Vero Beach, FL

Change the Weather History Date:

Tuesday, September 16, 2014

  Actual Average Record
Temperature  
Mean Temperature 79 °F 81 °F  
Max Temperature 87 °F 88 °F 94 °F (1990)
Min Temperature 71 °F 74 °F 66 °F (1967)
Degree Days  
Heating Degree Days 0 0  
Month to date heating degree days 0 0  
Since 1 July heating degree days 0 0  
Cooling Degree Days 14 16  
Month to date cooling degree days 231 256  
Year to date cooling degree days 2598 2554  
Growing Degree Days 30 (Base 50)    
Moisture  
Dew Point 71 °F    
Average Humidity 78    
Maximum Humidity 100    
Minimum Humidity 55    
Precipitation  
Precipitation 0.14 in 0.23 in 7.12 in (1944)
Month to date precipitation 2.95 3.60  
Year to date precipitation 36.26 38.30  
Sea Level Pressure  
Sea Level Pressure 30.04 in    
Wind  
Wind Speed 5 mph (NNW)    
Max Wind Speed 23 mph    
Max Gust Speed 27 mph    
Visibility 10 miles    
Events Rain , Thunderstorm    
T = Trace of Precipitation, MM = Missing Value Source: NWS Daily Summary

Daily Weather History Graph

Daily Weather History Graph

Search for Another Location

Airport:

Trip Planner

Search our weather history database for the weather conditions in past years. The results will help you decide how hot, cold, wet, or windy it might be!

Date:

Astronomy

Sep. 16, 2014 Rise Set
Actual Time 7:07 AM EDT 7:25 PM EDT
Civil Twilight 6:43 AM EDT 7:48 PM EDT
Nautical Twilight 6:16 AM EDT 8:15 PM EDT
Astronomical Twilight 5:49 AM EDT 8:43 PM EDT
Moon 12:37 AM EDT (9/16) 2:25 PM EDT (9/16)
Length of Visible Light 13h 04m
Length of Day
12h 17m
Last Quarter, 44% of the Moon is Illuminated
Sep 16
Last Quarter
Sep 24
New
Oct 1
First Quarter
Oct 8
Full
Oct 15
Last Quarter

Hourly Weather History & Observations

Time (EDT) Temp. Heat Index Dew Point Humidity Pressure Visibility Wind Dir Wind Speed Gust Speed Precip Events Conditions
12:53 AM 77.0 °F - 73.0 °F 88% 30.12 in 10.0 mi Calm Calm - N/A   Mostly Cloudy
1:53 AM 75.9 °F - 73.0 °F 91% 30.12 in 10.0 mi WNW 5.8 mph - N/A   Overcast
2:38 AM 75.0 °F - 71.1 °F 87% 30.10 in 10.0 mi WNW 5.8 mph - N/A   Mostly Cloudy
2:46 AM 75.0 °F - 72.0 °F 90% 30.10 in 10.0 mi WNW 5.8 mph - N/A   Mostly Cloudy
2:53 AM 75.0 °F - 71.1 °F 87% 30.09 in 10.0 mi West 6.9 mph - N/A   Scattered Clouds
3:53 AM 73.9 °F - 70.0 °F 87% 30.07 in 10.0 mi West 3.5 mph - N/A   Clear
4:53 AM 73.0 °F - 71.1 °F 93% 30.07 in 10.0 mi NNW 3.5 mph - N/A   Clear
5:53 AM 72.0 °F - 69.1 °F 91% 30.08 in 10.0 mi Calm Calm - N/A   Clear
6:53 AM 72.0 °F - 71.1 °F 97% 30.08 in 10.0 mi Calm Calm - N/A   Clear
7:53 AM 73.0 °F - 71.1 °F 93% 30.08 in 10.0 mi Calm Calm - N/A   Clear
8:53 AM 77.0 °F - 73.0 °F 88% 30.08 in 10.0 mi Calm Calm - N/A   Clear
9:53 AM 80.1 °F 84.2 °F 73.0 °F 79% 30.08 in 10.0 mi SW 3.5 mph - N/A   Clear
10:53 AM 82.9 °F 88.0 °F 72.0 °F 69% 30.08 in 10.0 mi WNW 3.5 mph - N/A   Partly Cloudy
11:53 AM 86.0 °F 92.2 °F 72.0 °F 63% 30.08 in 10.0 mi Variable 3.5 mph - N/A   Scattered Clouds
12:53 PM 86.0 °F 92.2 °F 72.0 °F 63% 30.05 in 10.0 mi ENE 6.9 mph - N/A   Partly Cloudy
1:53 PM 84.9 °F 88.8 °F 69.1 °F 59% 30.03 in 10.0 mi East 8.1 mph - N/A   Partly Cloudy
2:53 PM 87.1 °F 91.3 °F 69.1 °F 55% 30.01 in 10.0 mi ENE 10.4 mph - N/A   Scattered Clouds
3:53 PM 86.0 °F 89.4 °F 68.0 °F 55% 29.99 in 10.0 mi NE 6.9 mph - N/A   Clear
4:53 PM 84.0 °F 87.8 °F 69.1 °F 61% 29.98 in 10.0 mi East 6.9 mph - N/A Thunderstorm Partly Cloudy
5:13 PM 84.0 °F 84.5 °F 62.1 °F 47% 29.98 in 10.0 mi ESE 8.1 mph - N/A   Mostly Cloudy
5:53 PM 84.0 °F 89.0 °F 71.1 °F 65% 29.98 in 10.0 mi East 5.8 mph - N/A   Clear
6:53 PM 81.0 °F 85.2 °F 72.0 °F 74% 29.97 in 10.0 mi East 4.6 mph - N/A   Partly Cloudy
7:32 PM 81.0 °F 85.2 °F 72.0 °F 74% 29.99 in 10.0 mi Calm Calm - N/A Thunderstorm Overcast
7:53 PM 75.0 °F - 69.1 °F 82% 30.01 in 10.0 mi West 12.7 mph - N/A Thunderstorm Overcast
8:30 PM 73.0 °F - 71.1 °F 93% 30.01 in 9.0 mi Calm Calm - 0.04 in Rain Light Rain
8:42 PM 72.0 °F - 69.1 °F 91% 30.01 in 10.0 mi SE 4.6 mph - 0.05 in Thunderstorm Thunderstorm
8:53 PM 73.0 °F - 71.1 °F 93% 30.01 in 6.0 mi SE 4.6 mph - 0.06 in Rain , Thunderstorm Light Rain
9:16 PM 73.0 °F - 71.1 °F 93% 30.02 in 5.0 mi West 5.8 mph - 0.04 in Rain Light Rain
10:53 PM 72.0 °F - 66.9 °F 84% 30.01 in 10.0 mi West 6.9 mph - N/A   Clear